Terminal Aerodrome Forecast
Issued by NWS

Home | Current Version | Previous Version | Text Only | Print | Product List | Glossary On
Versions: 1 2 3 4 5 6 7 8 9 10 11 12 13 14 15 16 17 18 19 20 21 22 23 24 25 26 27 28 29 30 31 32
985
FTUS44 KEWX 281740
TAFSSF
TAF
KSSF 281740Z 2818/2918 15008KT P6SM BKN040
     FM290800 13004KT P6SM BKN012
     FM291000 10003KT P6SM BKN009
     FM291500 17008KT P6SM BKN025
     FM291700 17006KT P6SM SCT050=

USA.gov is the U.S. government's official web portal to all federal, state and local government web resources and services.